Theta_e
353 353 352 352 351 347 346 349 349 348 348 346 343 343 344 344 344 344 343 343 343 343 345 346 344 343 343 343 343 341 340 339 338 336 335 334 333 331 330 329 325 322 322 323 324 325 326 328 327 326 326 327 327 328 327 327 328 328 328 329 330 330 330 331 331 331 330 329 329 329 329 329 329 329 329 329 329 330 331 331 332 332 332 332 333
353 352 351 351 350 347 346 348 348 347 345 343 343 342 343 343 343 343 343 344 344 343 344 344 344 343 343 342 342 341 340 339 337 335 334 332 331 329 328 326 322 319 320 322 323 323 324 326 326 324 324 325 325 326 326 327 327 327 328 328 328 329 330 330 330 329 329 329 328 328 328 328 329 329 330 330 330 331 330 330 330 330 330 331 331
353 352 351 350 349 348 348 348 348 347 345 342 342 342 342 343 343 343 344 344 344 344 344 344 344 343 343 342 341 340 339 338 335 334 333 331 330 328 326 323 319 317 318 319 320 320 320 321 321 320 320 321 323 324 325 326 326 326 327 327 327 328 328 329 329 329 329 328 328 328 328 328 329 329 329 330 330 331 331 331 331 329 329 329 329
352 351 350 349 349 349 347 347 348 348 345 344 344 344 344 345 345 345 345 344 344 345 344 344 344 344 343 342 340 339 338 336 334 333 331 330 329 327 326 323 320 320 321 320 320 320 319 319 318 317 316 317 318 320 322 324 325 325 326 326 327 327 328 328 330 330 329 329 329 328 328 328 328 329 329 329 330 330 331 330 330 330 329 329 329
351 349 349 349 350 350 348 348 349 347 345 344 345 346 346 346 346 345 345 346 346 346 345 344 344 343 342 341 339 338 337 335 334 333 331 330 329 328 327 324 322 322 324 324 323 323 321 318 317 317 316 316 317 319 321 323 324 325 326 327 327 327 327 328 328 329 329 329 329 328 328 328 327 328 329 329 330 330 330 330 330 330 330 329 329
350 348 347 348 351 351 349 348 347 346 345 345 347 348 348 347 347 347 346 346 346 346 346 345 343 343 342 340 338 337 335 334 333 332 331 331 330 329 328 325 324 324 325 326 325 324 321 319 318 318 318 318 319 320 322 324 325 326 326 327 328 328 328 328 327 328 328 328 328 328 327 327 327 329 329 330 330 330 331 331 330 330 330 330 330
350 348 347 347 350 350 349 348 347 347 348 349 349 350 350 349 349 348 347 347 345 344 344 344 343 343 341 339 337 337 335 334 334 333 332 332 331 329 327 325 326 325 326 326 325 322 320 319 320 320 320 321 321 320 321 323 325 325 324 325 328 328 327 326 326 326 327 327 326 326 327 327 327 328 329 329 330 330 330 331 331 331 331 331 331
350 349 348 348 350 350 349 349 351 351 351 352 352 352 351 351 350 349 349 348 346 345 343 343 342 341 340 339 337 337 336 334 334 333 332 332 331 328 326 325 326 327 327 326 323 320 320 320 321 322 322 322 322 321 322 323 323 323 322 324 327 328 327 327 327 327 327 326 325 325 326 326 326 327 328 329 330 330 330 330 331 331 330 331 330
350 349 349 349 350 351 350 351 352 352 352 353 352 352 352 351 350 350 349 348 347 346 344 343 342 340 339 338 337 336 335 333 333 332 331 331 329 327 326 326 327 328 327 323 320 319 321 322 323 324 324 324 324 324 324 324 324 323 323 324 325 326 326 327 327 327 326 325 324 324 325 325 325 326 327 327 327 328 329 329 330 330 330 330 330
351 349 350 350 350 352 352 352 352 352 352 353 353 353 352 351 352 351 350 349 348 347 345 343 341 340 339 338 338 336 334 333 334 332 328 326 327 327 328 328 328 327 323 320 320 322 324 324 325 325 326 326 326 326 326 326 326 325 325 325 325 325 326 325 325 325 325 325 325 324 324 324 324 325 325 325 325 327 328 329 329 329 329 329 329
351 349 350 351 351 352 352 352 352 352 353 354 354 354 352 352 353 352 351 350 349 348 346 343 341 339 339 339 338 336 336 337 335 330 326 324 325 327 328 328 326 322 320 321 323 325 325 325 326 327 327 327 327 327 326 326 327 327 327 327 327 327 327 326 326 326 326 327 326 325 325 325 325 325 324 324 325 327 328 328 328 328 328 328 329
351 350 351 351 351 352 352 352 353 353 354 355 355 353 352 352 352 352 351 349 347 345 344 343 341 339 337 338 337 335 336 334 331 327 325 324 324 325 327 326 321 319 321 325 326 326 326 326 327 327 327 327 327 327 326 326 327 327 327 327 326 326 327 326 326 327 327 327 326 326 327 326 326 326 325 325 326 327 328 328 328 328 328 328 328
352 351 351 350 351 352 353 353 353 353 354 354 353 353 352 352 352 351 349 346 343 342 341 341 340 338 338 338 335 334 334 330 326 324 324 325 325 324 324 321 319 321 325 327 327 327 328 328 328 327 327 326 326 325 325 325 326 325 325 325 325 325 326 325 326 326 326 325 325 326 326 326 326 326 326 326 326 327 327 327 328 327 327 328 327
353 352 351 351 351 352 353 353 353 353 354 353 352 352 352 352 350 348 346 343 341 341 339 339 338 338 337 336 334 334 333 327 323 324 326 325 321 320 319 320 322 325 326 327 327 327 327 328 327 326 325 324 325 325 325 325 324 324 324 324 324 324 324 324 324 325 325 325 325 325 325 325 326 326 327 327 327 327 327 327 327 327 327 327 327
353 352 352 351 351 351 353 353 352 354 354 352 352 351 351 351 349 345 343 341 340 339 338 337 337 336 334 332 332 333 329 325 325 325 323 319 316 317 321 323 325 326 326 327 327 327 327 327 326 325 324 324 325 325 323 322 322 323 323 324 324 323 323 323 323 323 323 323 323 324 324 325 325 325 326 327 327 328 328 328 328 327 326 326 327
354 352 351 351 351 351 352 352 352 353 353 352 351 351 351 351 347 343 341 339 339 338 336 335 334 332 331 330 330 330 328 325 324 320 317 316 318 321 325 325 325 326 327 327 327 327 327 326 325 324 324 324 324 322 318 317 319 322 323 323 323 323 322 322 322 322 321 322 322 322 322 321 321 321 321 322 323 325 327 328 328 328 327 327 327
354 352 351 351 350 350 351 352 353 353 352 351 351 351 351 349 344 340 339 339 337 336 333 331 329 329 330 329 330 331 328 322 317 315 317 318 320 324 326 326 327 327 328 327 327 326 326 325 324 324 323 322 321 318 315 315 318 321 322 322 322 322 322 323 322 321 321 321 321 321 321 320 320 320 320 320 321 323 326 327 327 328 328 328 327
353 352 351 350 350 351 352 353 352 351 351 351 351 350 349 345 341 340 338 337 335 332 330 329 329 330 331 330 327 327 325 319 315 317 319 319 320 324 327 327 327 328 327 327 327 326 325 324 324 323 323 322 319 316 315 316 318 320 321 322 322 322 323 323 322 322 321 321 321 321 322 322 322 321 321 322 322 323 326 327 327 328 329 328 329
353 352 350 350 350 352 352 352 351 349 349 350 350 349 346 342 339 339 336 334 332 329 328 328 329 330 330 326 321 319 321 322 320 318 319 320 321 324 327 327 327 327 327 326 326 326 324 324 323 322 323 321 318 315 315 316 317 319 320 321 322 323 322 321 321 322 323 322 321 321 322 323 323 324 324 323 323 324 325 326 327 328 328 327 328
353 351 350 351 351 351 351 350 349 349 348 349 349 347 343 340 338 337 333 331 329 328 328 328 328 327 324 321 319 320 322 324 323 320 320 322 322 323 325 328 326 325 325 325 326 325 324 324 323 322 322 320 317 315 315 316 317 319 320 322 322 322 321 320 321 321 322 323 322 322 322 322 323 324 324 324 325 324 324 325 326 328 327 327 327
352 351 352 352 350 350 350 349 348 348 348 347 346 343 340 338 337 334 331 329 330 329 329 327 325 322 319 318 321 323 322 322 323 322 321 322 323 322 324 326 324 323 324 325 325 325 323 323 323 322 321 318 316 316 317 316 317 319 320 321 321 320 319 320 321 322 322 323 323 323 323 322 322 323 323 323 324 324 324 324 326 327 327 326 327
352 352 352 352 350 349 348 347 347 348 348 345 343 341 339 337 334 332 330 330 329 327 325 322 320 319 319 321 324 324 323 323 323 323 323 323 323 322 322 322 322 323 324 324 324 324 323 322 322 320 319 317 317 317 317 317 318 319 319 319 319 319 319 320 321 321 321 321 321 322 323 323 322 322 321 321 322 322 323 324 325 326 326 326 327
352 351 350 350 350 348 345 345 346 347 347 344 342 339 337 336 333 331 330 328 325 322 320 319 319 320 323 325 325 325 325 325 324 323 323 323 323 321 320 320 320 321 322 322 322 322 322 321 321 319 318 318 318 318 318 318 318 318 318 318 318 319 320 321 321 321 321 321 321 321 322 321 321 321 321 320 321 321 322 322 322 324 325 326 327
352 350 349 350 348 346 345 345 345 346 345 343 341 338 336 334 332 329 326 324 321 320 319 320 322 323 325 326 325 325 326 327 326 325 324 323 323 322 321 320 321 321 320 321 322 322 321 321 320 319 318 318 318 318 319 319 318 318 318 318 319 320 320 321 321 320 320 321 321 321 321 321 321 321 320 320 320 321 321 321 321 322 323 324 326
352 350 348 348 347 345 346 346 345 344 343 341 339 337 334 332 329 326 324 322 320 320 319 321 323 325 325 326 326 326 326 327 328 327 327 326 325 324 323 324 324 322 321 322 323 321 320 321 321 319 319 319 319 319 319 319 319 319 319 319 320 321 320 321 321 320 320 320 321 321 321 321 321 321 320 320 321 321 321 321 321 321 322 323 324
352 350 348 347 346 346 347 346 344 343 341 339 337 334 331 329 327 324 321 320 319 320 319 320 322 324 324 325 326 326 327 327 327 327 327 327 326 324 324 324 323 321 321 322 321 320 321 322 321 320 320 319 319 320 320 320 320 320 320 320 320 321 320 321 320 320 320 320 320 320 320 320 320 320 320 320 321 321 320 320 320 321 321 322 323
352 350 347 346 346 347 347 345 343 341 338 336 333 331 329 327 324 321 319 319 319 319 319 319 321 323 324 325 326 326 326 326 326 326 326 325 324 323 322 321 320 320 320 319 319 320 322 322 320 320 320 319 319 320 320 320 320 320 320 321 321 320 320 320 320 319 319 318 318 319 320 320 320 320 320 320 320 320 320 320 320 320 320 321 322
351 349 347 346 346 347 346 344 341 338 335 333 330 328 327 324 320 319 319 319 319 318 319 319 320 322 324 324 325 326 326 325 325 324 323 323 322 320 319 318 318 319 318 318 319 321 322 321 321 321 320 320 320 320 320 320 320 320 320 320 320 320 320 320 319 318 318 318 318 319 319 320 320 320 319 319 319 319 320 320 320 320 320 320 321
350 348 347 346 347 346 344 342 338 335 334 332 329 327 324 321 319 319 318 317 316 316 318 320 320 322 324 324 324 324 324 325 323 321 321 321 318 315 315 317 317 317 317 318 320 321 321 320 321 320 320 320 320 320 320 320 320 320 321 320 320 321 320 319 318 317 318 319 319 319 319 320 319 319 319 319 319 319 319 319 319 319 319 320 321
349 347 347 347 346 346 343 340 337 334 332 331 327 322 318 317 319 320 318 316 316 315 316 318 319 320 322 323 323 323 323 322 321 320 321 320 315 312 315 317 316 316 317 319 321 321 320 321 320 319 319 319 319 319 319 319 319 320 320 320 320 320 320 319 318 318 318 319 319 319 319 320 319 319 319 319 319 319 319 319 319 319 319 320 321
348 347 346 346 346 345 341 338 336 334 331 328 324 320 317 316 317 317 317 318 317 315 316 318 319 318 320 322 324 325 323 321 320 321 320 317 313 314 317 318 318 317 318 319 320 320 320 320 319 319 318 318 318 319 319 319 319 319 319 319 320 320 319 319 318 318 319 319 320 320 320 319 319 319 319 319 319 318 319 319 319 319 319 320 320
348 347 347 346 346 344 340 337 336 333 330 326 322 321 320 319 317 316 316 317 318 316 317 319 319 319 320 321 323 325 323 319 320 320 317 314 314 317 319 319 319 318 318 319 319 319 319 319 318 318 318 318 318 318 318 318 318 319 319 319 319 319 319 318 319 319 320 320 320 319 319 319 319 318 318 318 318 318 319 319 319 319 320 320 320
348 347 347 348 346 342 338 337 336 333 330 327 324 323 323 322 321 319 316 315 316 316 316 318 319 320 322 322 322 323 321 319 319 318 314 313 316 319 319 320 319 318 318 319 319 319 318 318 317 317 317 317 317 318 318 318 318 318 318 318 318 318 318 318 319 320 320 320 319 319 319 319 319 319 318 318 318 319 319 319 319 319 320 320 321
348 348 348 348 345 341 338 337 336 333 330 328 325 324 323 323 323 322 320 319 319 318 318 319 319 320 322 323 322 321 320 318 318 315 313 316 319 319 320 321 319 318 318 318 318 318 318 317 317 316 316 317 317 317 317 318 318 318 318 318 318 318 318 318 318 319 320 320 320 319 319 319 319 319 319 319 319 319 319 320 320 320 321 321 321
349 348 347 347 345 341 338 338 336 333 330 328 326 325 324 324 323 323 322 323 323 322 322 322 321 320 320 321 322 320 318 318 317 315 315 318 320 320 321 321 320 320 319 318 317 318 317 317 316 316 316 316 316 316 317 317 317 318 318 318 318 318 319 318 318 318 319 320 320 320 320 320 320 319 320 320 320 320 320 320 321 321 321 321 321
349 349 347 346 345 342 339 338 336 333 330 328 326 325 325 324 324 323 322 323 323 322 323 324 324 322 321 320 319 318 317 318 319 318 318 319 320 320 321 321 320 320 319 317 317 318 317 317 317 316 316 316 316 316 316 317 317 318 318 318 318 319 319 319 318 317 318 319 319 319 320 320 320 320 320 320 320 320 320 319 320 320 320 319 319
349 348 347 346 344 341 340 338 336 333 330 328 326 326 325 324 323 323 322 322 322 322 322 323 324 325 325 322 320 319 320 322 322 321 319 319 320 321 321 320 320 320 319 317 317 317 317 317 317 316 316 316 316 316 316 316 317 317 317 318 319 319 319 318 318 317 317 317 318 318 319 319 320 320 320 320 319 319 318 318 318 318 318 317 318
347 346 346 345 343 342 340 339 336 332 329 327 326 326 326 324 323 322 322 322 321 322 323 323 323 324 325 324 323 323 323 324 323 321 320 321 321 321 320 320 320 319 318 317 317 317 317 317 317 317 316 316 316 316 316 316 317 317 316 317 319 319 319 318 318 317 317 317 317 317 317 317 318 318 318 319 318 318 317 316 316 316 316 316 315
345 345 344 343 342 340 339 338 335 331 329 328 327 326 325 324 323 322 322 322 321 322 323 323 323 323 324 323 323 324 324 323 322 320 319 321 322 321 320 320 320 319 318 317 317 317 317 317 317 317 317 316 316 316 316 316 316 316 316 317 318 318 318 318 317 317 316 316 317 317 316 316 316 316 316 316 316 316 316 315 315 315 315 314 314
346 344 342 341 340 339 338 337 335 331 329 328 327 326 324 323 322 321 322 322 322 322 323 322 323 324 324 322 322 324 325 324 321 319 319 321 321 321 320 320 319 320 319 317 317 317 317 317 317 317 317 317 316 316 316 316 316 316 316 317 318 318 318 318 317 317 317 317 317 317 317 316 316 315 314 314 314 314 314 314 314 314 314 313 314
345 342 340 339 338 338 338 337 335 332 329 327 326 325 323 322 322 321 321 322 322 322 323 323 324 324 322 319 319 322 325 324 320 319 320 321 321 321 320 320 319 319 319 318 318 317 317 317 317 317 317 317 316 316 317 316 316 316 316 317 317 318 318 317 317 317 317 317 317 317 317 316 316 315 315 314 314 313 313 313 313 313 313 313 313
343 340 339 338 337 338 339 337 333 330 328 326 324 323 322 322 321 321 321 322 322 323 323 323 324 323 321 319 319 322 324 323 320 318 319 321 321 320 319 319 319 319 319 318 318 317 316 317 317 317 317 317 316 316 317 316 316 316 316 317 317 318 318 318 317 317 318 317 317 317 317 316 316 316 315 315 314 313 313 313 313 313 312 312 312
342 340 339 338 337 338 336 333 330 328 326 324 323 323 322 321 321 320 321 321 322 323 323 323 324 324 321 319 321 323 324 323 320 318 319 321 321 320 318 318 318 319 318 318 318 317 317 317 316 317 317 316 316 316 316 316 316 316 316 317 317 317 318 318 318 318 318 317 317 317 317 316 316 316 316 315 315 314 313 313 312 312 312 312 312
340 338 338 337 336 334 332 329 328 326 324 322 322 323 322 321 320 320 321 321 322 323 324 323 324 324 323 322 323 324 323 322 319 318 319 320 320 319 319 318 318 318 318 317 317 317 317 317 316 316 317 316 316 316 316 316 316 316 316 316 317 317 317 317 317 317 318 317 317 317 316 316 316 316 316 315 315 314 314 313 313 313 312 312 312
339 338 336 334 332 330 329 327 326 323 322 322 322 322 322 321 320 320 321 321 322 323 324 323 324 324 323 323 323 323 323 322 319 317 318 320 320 319 318 318 317 317 317 317 317 317 317 317 317 316 316 316 316 316 316 316 316 316 315 316 316 317 317 317 317 317 317 317 317 316 316 316 316 316 315 315 315 314 314 314 313 313 313 312 312
338 336 334 331 330 329 328 326 324 322 322 322 321 321 321 321 320 320 321 321 322 323 323 323 324 324 324 323 323 323 323 322 319 317 318 320 319 319 319 318 317 316 316 316 316 317 317 317 317 317 316 316 316 316 316 315 315 315 314 314 315 316 317 317 317 317 317 317 317 316 316 316 316 315 315 315 315 314 314 313 313 312 312 312 312
335 333 331 329 328 327 326 325 323 322 321 321 321 321 320 320 320 320 320 321 322 323 323 324 324 324 323 323 323 323 323 321 318 317 318 320 319 319 319 318 317 315 315 315 316 316 317 317 317 317 316 316 316 316 315 315 315 314 313 313 314 315 316 317 317 317 317 317 316 316 316 316 316 316 316 315 315 315 314 314 313 313 312 312 312
332 330 329 328 326 325 325 324 323 322 321 321 321 320 319 319 319 319 320 321 321 322 323 324 325 324 323 323 323 323 322 321 318 317 318 319 319 319 318 318 317 315 314 315 316 316 316 316 317 316 316 315 315 315 314 314 314 313 312 312 313 314 315 316 316 317 317 317 317 316 316 316 315 316 316 315 315 315 314 314 314 314 313 313 313
331 329 327 326 324 324 323 323 322 322 321 320 320 319 318 318 319 320 320 321 321 322 323 324 324 323 322 323 323 322 322 321 319 317 317 319 319 318 318 318 316 315 314 314 315 315 315 316 316 316 315 314 314 314 313 313 312 312 311 311 313 314 314 315 316 316 316 317 316 316 316 316 315 315 315 315 315 315 314 314 314 314 314 314 314
328 326 325 324 323 323 323 322 322 321 320 320 319 318 318 318 319 320 321 321 322 322 322 324 324 322 322 322 322 322 322 321 319 317 317 319 319 319 318 317 316 315 314 314 314 315 315 315 315 315 314 313 313 312 311 311 311 310 310 311 312 314 314 315 315 315 316 316 316 316 316 316 315 315 315 315 315 315 315 314 314 314 314 314 314
325 324 323 323 323 322 321 321 321 321 320 320 319 319 318 319 320 320 321 322 322 321 322 323 323 322 322 322 322 322 322 321 319 317 317 318 319 319 318 317 317 315 315 314 314 314 314 314 314 314 314 313 312 311 310 309 309 309 310 310 311 312 313 314 314 315 315 315 315 315 315 315 315 315 315 315 315 314 314 314 314 314 314 314 314
Wind_Speed
7 7 7 5 5 6 6 6 5 5 5 5 6 6 6 6 6 6 6 6 6 5 5 4 3 3 3 3 3 4 5 4 4 4 5 5 6 7 9 12 13 11 9 9 8 8 9 9 8 8 8 9 9 9 9 9 8 9 8 8 9 9 9 10 9 9 11 12 12 12 11 11 10 10 9 9 9 9 9 9 10 11 12 13 14
8 7 6 5 6 7 7 7 7 7 7 7 8 8 7 7 7 7 7 6 5 5 4 3 3 3 3 3 3 4 5 4 4 4 5 6 7 8 10 12 11 9 8 8 8 8 9 9 8 9 9 9 10 10 10 10 9 9 9 9 9 9 9 11 11 11 12 12 13 13 12 12 11 10 10 11 11 12 12 12 12 12 12 12 13
7 6 5 5 5 6 7 7 8 8 8 8 8 8 8 7 7 6 6 5 5 5 4 4 4 3 3 3 3 3 4 4 4 5 5 6 7 8 10 11 10 8 7 7 7 8 8 8 8 9 10 10 11 11 11 10 10 10 10 10 11 11 10 11 12 13 13 13 14 14 14 13 13 13 13 13 13 13 14 14 14 14 14 13 13
6 5 4 4 5 5 6 7 7 8 8 8 8 8 7 6 6 6 5 5 5 5 5 4 4 3 3 3 3 3 4 4 4 5 5 6 7 7 8 9 8 7 7 7 7 8 8 9 9 10 11 11 12 12 11 11 11 11 12 12 11 12 11 11 12 13 14 14 14 15 15 14 14 14 14 14 14 14 15 15 15 15 16 16 16
6 5 4 4 4 5 5 5 6 6 6 7 7 6 6 5 5 5 5 6 6 5 5 4 3 3 3 3 3 3 3 3 4 4 4 5 5 6 8 9 8 7 8 8 8 8 9 10 10 10 11 11 11 11 11 11 12 12 12 12 12 12 12 12 12 13 14 15 16 15 15 16 15 14 13 14 15 15 15 15 15 15 16 17 17
5 5 4 4 4 4 5 5 4 4 5 5 5 5 5 4 4 5 5 6 5 5 5 4 4 3 3 3 3 3 2 2 3 3 3 4 5 7 9 9 9 9 9 10 10 10 11 11 11 10 10 11 11 11 11 12 12 12 12 12 12 12 12 12 12 13 13 14 15 15 15 15 14 13 13 13 14 15 15 15 15 15 16 16 16
5 4 4 4 4 5 5 4 3 3 4 4 5 4 4 4 4 5 5 5 6 5 4 4 4 3 3 3 3 2 1 1 2 2 3 5 7 9 10 10 10 10 11 11 11 11 12 11 10 10 10 10 11 11 12 12 12 12 12 12 12 12 13 13 13 13 14 14 15 15 14 14 13 14 13 13 14 15 14 14 14 14 14 14 14
6 4 4 4 5 5 5 4 3 3 3 4 4 4 3 3 4 4 5 5 6 6 5 4 3 3 3 2 1 1 0 1 1 2 4 7 9 10 11 11 11 12 12 13 12 12 12 11 9 9 10 10 10 11 11 11 12 12 12 12 12 13 13 14 14 15 15 15 15 14 14 14 14 14 13 12 13 13 13 12 13 13 12 12 13
7 5 5 5 5 6 5 4 3 3 3 3 2 2 2 2 3 3 4 5 5 5 4 3 3 3 3 1 1 2 3 3 3 4 6 9 11 11 11 12 12 13 13 13 13 11 11 10 9 9 11 11 11 10 10 11 12 12 12 12 13 13 13 14 15 15 15 15 16 15 14 14 13 13 12 12 12 12 12 12 12 12 11 11 13
8 7 6 6 7 7 6 5 4 3 2 1 1 2 2 3 3 4 4 4 4 4 3 2 2 2 2 1 1 3 4 3 3 4 8 10 11 11 12 12 12 13 13 13 12 10 10 10 10 10 11 11 11 11 11 11 11 12 13 13 13 14 14 14 15 15 14 14 15 14 14 14 13 12 13 13 12 12 12 12 11 11 10 10 11
9 8 8 7 7 7 6 5 4 3 2 1 1 2 2 3 4 4 5 4 4 4 3 3 3 2 2 1 2 3 4 3 3 5 8 10 11 12 12 12 13 13 12 11 11 10 10 11 11 10 10 10 11 11 11 11 12 12 13 14 15 15 16 16 16 15 15 14 15 15 14 14 13 13 13 13 12 11 11 10 9 9 9 9 9
10 9 8 7 7 6 5 5 4 3 2 1 1 2 3 3 4 5 5 5 4 4 4 4 4 3 3 2 3 3 4 2 4 6 8 11 13 13 13 13 13 12 11 10 11 10 10 11 10 10 10 10 12 12 12 13 13 14 15 15 16 16 17 18 17 17 16 16 16 16 16 15 14 14 13 12 12 11 11 10 10 10 10 9 9
9 8 7 7 6 6 5 5 4 2 1 1 2 3 4 4 5 5 4 4 4 4 4 5 4 4 4 4 4 4 4 3 5 7 10 12 14 15 13 12 11 10 9 10 10 10 10 11 11 11 11 11 13 13 14 14 15 16 17 17 17 17 17 17 18 18 19 18 17 17 17 16 17 16 14 13 13 12 12 11 11 11 11 11 11
9 8 7 6 6 5 5 5 4 1 1 2 3 4 4 5 5 4 4 3 4 4 5 5 5 5 5 5 4 3 3 5 7 9 11 13 15 14 11 10 10 9 9 9 10 10 11 11 11 12 12 14 14 14 15 17 18 19 19 19 19 19 17 17 17 17 17 17 17 17 16 16 17 17 15 13 13 13 12 12 12 11 12 12 12
10 9 8 6 5 5 5 5 3 1 1 2 3 4 4 4 3 3 3 3 4 5 5 5 5 5 5 4 3 3 3 7 8 10 12 13 13 11 9 8 9 8 8 9 10 11 11 10 11 12 14 15 15 14 16 19 20 21 22 23 22 21 19 18 17 16 16 16 16 16 15 14 14 15 14 14 14 14 12 12 13 14 14 14 13
10 9 8 7 5 5 5 4 2 0 1 2 3 3 3 2 2 2 2 3 4 4 5 5 5 4 4 4 3 2 4 7 9 10 10 11 11 9 8 8 9 9 9 10 11 11 11 11 12 13 15 15 15 17 20 22 21 21 22 23 23 22 20 18 17 18 18 18 17 17 16 15 15 14 14 15 17 17 14 13 14 15 14 13 12
10 9 8 6 5 5 5 3 1 1 2 3 3 2 1 1 1 2 3 3 4 4 4 4 4 5 4 5 5 3 3 7 9 8 9 11 11 10 9 8 9 10 11 11 12 12 11 12 14 15 16 15 17 20 22 22 21 21 22 22 22 21 18 15 14 16 17 18 19 20 20 18 16 15 15 15 16 15 14 14 15 13 12 11 10
10 9 8 6 6 6 5 3 1 0 2 3 2 0 1 2 2 2 3 3 4 4 3 3 4 5 4 4 5 4 3 6 8 9 10 11 11 10 9 9 10 11 12 12 12 12 13 14 15 17 16 16 19 22 21 19 19 20 20 20 21 19 15 12 13 14 15 16 18 20 21 18 14 14 14 15 14 13 13 15 14 11 11 11 9
10 9 8 7 8 8 7 6 6 4 1 0 1 2 2 3 3 2 2 3 3 3 3 3 4 4 4 4 5 5 3 4 7 10 11 10 10 10 10 10 11 12 13 14 13 14 14 15 16 17 16 17 21 22 19 17 17 18 18 18 18 16 13 13 14 14 14 15 17 17 19 17 12 10 12 13 14 14 16 16 14 11 12 12 10
10 9 9 9 10 11 11 10 8 6 5 4 4 4 4 4 3 2 2 3 3 3 4 4 3 4 4 4 4 4 3 4 8 10 10 9 10 11 10 10 12 13 14 15 15 16 15 15 17 18 17 19 22 20 16 15 15 16 16 15 14 14 15 15 16 15 14 14 15 14 14 13 9 8 10 10 11 12 14 14 14 13 13 12 10
11 11 11 11 11 12 12 10 7 6 6 7 7 6 5 4 3 2 2 2 3 3 3 3 3 4 4 3 2 3 4 6 8 8 9 9 10 12 11 10 12 14 16 16 16 16 16 17 18 20 21 21 20 16 14 14 15 15 15 13 12 14 16 16 16 15 13 12 12 11 11 10 9 8 9 9 8 9 10 8 8 9 11 10 9
12 12 12 12 11 11 11 10 8 7 8 9 9 8 6 5 3 3 2 2 2 2 2 3 3 3 2 2 2 3 6 8 7 7 8 10 12 13 12 11 13 15 16 17 17 17 17 18 20 22 22 20 18 15 14 15 15 14 13 12 12 13 14 15 15 15 14 13 11 9 9 9 8 7 8 9 9 8 8 6 5 7 9 8 7
13 13 12 12 11 10 9 8 8 8 10 10 9 8 7 5 4 4 3 2 2 2 2 2 3 2 1 2 3 4 6 6 6 7 10 11 13 13 13 14 15 15 16 18 18 17 18 20 21 21 20 17 17 16 13 13 15 15 13 12 11 11 12 12 12 12 13 13 12 10 10 9 9 8 7 9 9 8 8 7 7 7 8 7 6
13 13 13 12 9 7 7 7 7 8 11 11 10 8 7 6 5 5 3 2 1 1 2 2 2 2 2 3 4 6 6 5 6 9 12 13 13 13 14 15 16 18 19 18 17 18 21 20 20 19 17 15 16 15 12 13 15 15 14 13 11 10 10 11 11 12 12 12 12 11 10 9 8 8 7 8 8 8 7 7 7 7 7 7 6
13 13 13 11 8 7 7 8 8 10 11 11 10 9 7 6 6 5 3 2 1 1 1 2 1 1 2 4 5 6 6 5 6 9 12 13 13 14 16 16 17 20 20 18 19 22 22 18 17 16 14 13 14 14 12 13 14 14 13 13 11 10 11 12 13 13 13 13 13 12 12 11 10 9 8 7 7 7 6 6 6 6 6 6 7
12 12 11 10 9 10 9 9 10 11 11 10 9 8 7 6 5 4 3 1 1 1 2 2 1 1 2 4 5 6 6 6 8 10 12 13 13 15 16 16 17 20 20 19 21 22 19 16 14 12 12 12 13 12 12 13 13 13 12 12 11 11 12 13 12 12 13 14 14 13 13 12 10 9 8 7 7 6 4 4 5 5 6 6 7
11 12 10 9 9 10 9 9 11 11 11 9 9 8 6 5 5 4 2 1 1 1 2 3 2 2 3 4 5 6 5 6 10 12 13 13 14 16 16 16 18 20 20 21 21 19 16 15 12 12 13 14 12 12 13 14 14 14 13 12 12 12 13 14 13 13 14 15 14 12 12 11 9 8 7 7 8 6 4 4 4 4 4 6 7
11 10 9 9 9 9 9 10 11 11 10 9 8 8 6 5 4 3 2 2 2 3 3 3 3 3 4 4 5 6 5 8 11 14 14 14 16 17 16 16 18 20 21 22 20 16 15 15 13 13 14 14 14 14 15 15 15 15 14 13 13 13 13 14 15 16 16 15 14 12 11 10 9 8 6 6 6 5 4 3 3 3 3 4 6
10 9 9 9 10 9 10 12 11 10 10 9 9 9 8 6 4 4 5 5 5 6 5 4 5 5 5 5 6 7 7 9 12 14 14 15 17 18 17 17 20 23 22 20 18 15 15 15 15 14 14 15 15 15 15 15 16 16 15 15 15 14 13 15 18 20 19 16 14 12 11 10 8 7 6 5 5 4 4 4 3 3 3 3 5
9 9 9 10 10 10 12 12 10 10 10 10 10 11 10 8 7 6 7 6 6 7 6 4 5 7 7 6 7 8 8 10 12 13 13 15 18 18 16 16 21 24 22 19 16 15 15 15 14 14 15 15 15 15 15 15 16 16 15 16 16 15 15 17 20 21 20 17 13 11 11 10 7 5 5 5 5 4 4 4 3 3 3 3 3
9 9 10 10 11 11 12 12 10 9 9 10 11 12 11 10 9 8 6 5 5 6 5 3 3 6 8 8 7 8 9 10 12 13 15 17 18 16 14 15 19 21 20 18 17 17 16 14 14 14 15 15 15 15 15 16 16 15 15 15 16 17 17 18 21 22 20 18 15 12 11 10 7 6 6 5 5 4 3 3 3 3 3 2 2
9 10 10 10 11 11 11 11 11 10 9 10 11 11 10 10 9 8 6 4 3 4 4 2 2 5 7 7 5 6 8 11 12 14 16 18 17 15 14 14 16 18 18 16 16 17 16 14 14 15 15 15 15 15 15 16 15 16 16 16 17 18 18 19 22 22 20 18 17 16 13 11 9 9 9 7 6 5 4 4 4 4 4 3 2
9 10 10 10 12 11 10 11 11 10 10 10 11 10 9 8 8 8 7 5 2 2 2 1 3 5 7 6 5 6 8 11 13 14 16 16 15 14 14 13 13 15 18 18 17 17 17 15 15 15 15 15 15 15 15 15 15 16 17 17 18 19 19 20 22 22 19 18 18 16 14 13 12 11 10 9 8 8 7 6 5 4 3 2 4
10 10 9 10 12 12 11 11 11 10 10 10 10 9 7 5 5 6 7 6 4 2 2 1 2 5 7 6 6 7 9 11 12 14 14 15 15 15 15 13 12 13 16 18 18 18 16 15 15 15 15 15 15 15 15 15 15 17 18 17 18 20 20 20 22 22 20 20 20 16 14 14 13 11 11 10 9 8 7 6 5 5 5 7 9
11 11 10 10 12 12 11 11 11 10 10 10 9 8 7 5 4 4 4 4 4 3 3 3 2 5 7 6 6 7 8 9 10 12 14 15 16 16 15 14 13 13 15 18 19 18 16 15 15 15 14 14 14 14 14 15 17 19 19 18 20 21 19 18 22 24 22 22 22 18 14 14 12 10 9 9 9 9 10 11 11 12 13 14 14
12 11 11 11 12 12 11 11 11 11 11 11 9 8 6 5 4 4 3 3 3 2 2 2 2 3 6 7 6 6 8 9 9 11 13 16 17 16 14 14 14 13 15 18 19 18 17 15 14 14 13 13 14 15 15 17 18 18 18 18 20 21 18 16 20 24 24 23 23 21 18 16 14 13 14 14 14 14 16 18 17 16 15 16 16
12 11 11 12 13 12 11 10 11 12 12 11 9 7 6 5 4 4 4 4 3 2 2 2 1 1 3 4 5 6 7 8 9 10 11 14 15 14 13 13 13 13 15 18 19 18 17 16 14 14 13 13 15 15 16 18 19 18 16 17 18 19 19 18 19 22 23 22 22 21 21 19 18 19 20 20 19 18 18 17 17 17 16 17 17
12 11 12 14 13 12 11 11 12 13 12 11 9 7 6 5 4 4 5 5 3 2 2 2 2 1 2 3 4 4 6 7 8 9 10 11 13 13 12 12 12 13 15 18 18 18 17 16 15 14 13 14 15 16 17 19 18 16 16 17 17 17 18 19 18 18 20 21 21 20 21 21 20 19 20 19 18 18 17 17 17 18 18 19 20
12 12 13 15 14 12 11 11 12 13 12 11 9 7 6 6 5 5 5 5 4 2 2 2 3 3 3 3 4 5 5 6 8 10 10 10 11 12 12 12 12 12 15 17 18 18 17 16 15 14 14 14 15 16 18 19 18 17 18 18 18 18 17 18 18 18 18 20 20 18 19 22 22 21 21 20 18 18 18 18 18 18 18 20 21
12 12 14 15 13 11 11 12 12 13 12 10 9 7 7 6 6 6 6 5 4 3 2 3 4 4 4 5 5 5 6 7 8 9 9 9 10 11 11 12 13 13 14 16 18 18 17 16 15 14 14 14 15 16 17 17 17 18 19 19 18 18 17 17 19 20 19 20 20 19 19 20 20 20 22 22 21 20 19 19 19 19 19 19 20
12 12 15 15 12 11 11 12 12 13 12 10 8 8 7 7 6 6 6 6 5 3 3 4 5 5 5 6 6 5 5 7 8 8 8 8 9 10 11 11 12 13 14 15 17 17 17 16 15 14 14 14 14 15 16 16 15 17 19 19 18 18 17 17 19 20 20 20 20 19 19 18 18 19 20 20 20 21 22 21 20 20 21 21 20
13 13 15 15 13 12 12 12 13 13 11 10 9 8 8 8 7 6 7 6 5 4 4 5 6 5 4 6 6 5 4 6 7 8 8 8 8 9 11 11 11 13 14 15 15 16 16 16 15 14 14 14 15 15 15 15 15 16 18 20 19 18 17 17 18 18 18 18 18 18 18 19 19 19 19 18 18 19 21 21 21 21 22 22 22
14 14 14 14 13 12 12 13 13 13 11 10 9 8 8 8 7 7 7 6 5 5 5 5 6 5 4 5 5 4 3 5 7 7 7 8 8 9 10 11 12 13 14 15 14 14 14 15 15 15 14 15 15 15 15 15 15 16 16 18 19 19 18 18 18 17 17 17 17 17 18 18 18 19 20 19 18 19 19 20 21 21 21 21 21
14 14 13 13 13 13 13 13 13 12 11 11 10 9 9 9 8 8 8 7 6 6 5 5 6 5 4 3 3 3 4 5 6 7 6 7 8 8 9 11 12 13 14 15 15 13 13 14 15 15 15 15 15 15 16 16 16 16 16 16 17 18 18 18 17 16 16 16 16 16 17 18 18 19 19 19 18 19 20 21 22 22 21 21 21
14 13 13 13 13 14 13 13 13 12 12 11 10 10 10 9 8 8 9 8 7 6 5 6 5 5 4 3 2 3 3 4 5 6 6 6 7 8 9 10 12 13 14 14 15 14 13 13 13 14 15 16 16 16 16 16 16 16 16 15 15 16 17 17 17 16 15 15 16 16 17 18 19 18 19 19 19 19 20 20 21 21 21 21 20
14 14 15 15 14 14 14 14 13 13 12 11 11 11 11 10 9 9 9 8 7 6 6 6 6 5 4 3 3 3 3 3 5 6 6 6 7 7 8 9 11 13 14 14 14 14 14 13 13 14 14 15 16 15 16 17 17 16 16 15 14 14 15 15 16 16 16 16 16 16 17 18 19 19 19 19 19 19 19 20 20 21 21 22 21
15 15 15 15 15 14 14 14 14 13 12 11 11 11 11 10 10 10 9 8 7 6 6 6 6 5 4 4 3 3 3 3 4 5 5 6 6 7 8 9 10 12 13 14 14 15 14 14 14 14 14 15 15 15 15 16 16 16 16 15 14 14 14 15 16 16 16 17 17 16 17 18 18 19 19 19 20 20 20 20 20 20 21 21 22
17 16 16 15 15 15 15 15 14 14 13 11 11 10 11 11 11 10 10 9 7 6 6 6 6 5 5 5 4 4 3 3 4 4 4 5 6 6 7 8 9 11 12 14 15 15 15 15 15 15 15 16 16 15 16 16 16 16 16 16 15 16 16 16 16 16 16 17 17 18 18 19 19 19 19 19 19 20 20 20 20 19 19 19 19
17 16 16 16 15 16 16 15 15 14 13 12 11 11 11 11 11 11 10 10 8 7 6 7 7 6 6 5 5 4 4 3 4 4 4 5 6 6 7 8 9 10 12 13 14 15 16 16 16 16 17 17 18 18 18 18 18 18 18 17 16 17 17 18 18 18 17 18 18 18 18 19 19 19 19 19 19 19 19 19 19 19 18 17 17
16 16 17 16 16 16 16 15 16 15 14 13 13 12 11 12 11 11 10 9 8 7 7 7 7 7 6 6 6 5 4 4 4 4 4 5 5 6 7 8 8 10 11 12 13 14 15 16 17 17 18 19 20 21 21 21 21 21 20 18 17 17 18 19 20 20 20 19 19 19 19 20 20 20 20 20 20 19 19 19 19 19 19 19 18
17 17 17 16 16 16 16 16 16 16 15 15 14 13 12 12 11 11 10 10 8 8 8 8 8 8 7 7 6 6 5 5 5 5 5 5 6 6 7 7 8 9 10 11 12 14 15 16 17 18 18 19 21 23 25 25 24 23 23 22 22 22 22 22 22 22 21 20 20 20 20 20 21 21 21 21 21 21 21 21 21 21 21 21 21
Wind_Direction
117 108 101 91 82 84 87 86 86 91 97 98 96 93 88 83 79 73 68 64 65 67 70 79 78 61 63 85 97 96 94 90 72 59 55 47 31 19 15 9 1 357 357 357 355 353 351 344 336 330 321 312 307 303 300 297 294 290 286 282 279 275 273 272 274 281 285 288 292 294 297 298 293 290 291 290 290 290 287 283 280 277 274 269 264
121 115 105 89 80 86 89 89 90 92 95 95 92 90 86 80 74 71 69 64 61 58 55 60 54 35 45 71 86 93 96 82 52 45 48 39 23 14 11 6 3 4 3 0 357 354 348 337 334 333 325 317 313 307 301 299 297 294 290 286 283 280 276 275 277 281 284 285 288 290 290 289 288 289 292 292 293 292 289 286 284 277 273 274 271
124 116 101 87 83 90 91 91 92 90 89 88 86 85 83 78 72 68 65 60 55 46 36 38 38 34 49 73 86 87 83 67 59 59 53 38 24 17 12 8 9 14 12 5 359 355 344 332 330 330 325 319 313 306 302 300 298 296 294 291 287 284 280 277 277 280 283 285 285 285 287 287 287 290 292 292 291 290 285 283 282 277 273 273 273
132 118 101 89 87 96 99 97 97 95 93 91 88 86 82 77 69 60 50 41 39 37 35 38 43 44 59 79 83 79 80 77 70 61 48 36 28 22 18 14 12 15 13 5 359 353 343 333 331 329 322 315 308 302 300 301 302 300 296 292 289 288 287 283 279 279 282 283 282 283 286 287 286 285 287 288 287 286 285 283 281 277 274 272 271
136 125 116 109 106 113 117 111 105 104 102 96 90 85 79 72 61 47 40 35 32 32 31 28 31 45 65 82 81 78 83 82 70 54 41 32 27 21 17 11 6 5 4 358 351 347 340 332 328 325 321 315 311 308 308 308 305 300 296 295 295 293 292 290 287 285 284 283 284 285 284 283 283 282 281 283 283 283 282 281 278 276 274 271 269
141 139 138 133 130 131 133 128 116 105 96 89 87 81 70 60 50 38 35 32 27 26 20 11 16 34 62 84 88 84 79 73 70 59 39 28 21 13 7 3 0 357 355 349 344 341 337 332 329 327 324 320 317 317 315 311 307 303 301 299 295 293 291 289 286 285 283 283 284 285 283 283 285 284 281 280 281 282 282 280 277 275 274 274 272
151 152 148 143 140 138 140 135 117 101 92 86 83 73 56 48 39 29 26 18 12 12 13 17 26 38 69 89 95 91 86 91 97 77 35 19 11 4 0 359 355 350 346 343 342 341 338 334 332 333 334 330 325 321 318 315 312 308 306 302 298 296 292 288 285 284 283 282 283 284 284 286 287 285 283 281 278 277 276 276 275 273 273 276 276
158 159 151 145 141 140 142 135 120 112 102 91 79 65 55 45 31 23 16 5 359 358 5 25 38 53 80 89 81 72 71 73 54 24 11 4 359 357 355 352 349 344 341 340 341 342 339 337 339 341 341 337 329 325 323 322 319 313 311 309 305 299 294 290 289 287 286 285 285 286 288 289 288 286 283 279 276 274 274 275 275 274 275 277 276
162 160 155 154 150 146 145 139 132 126 110 96 75 55 45 30 18 8 1 356 354 355 5 29 39 58 78 72 26 353 331 339 358 358 2 358 350 349 347 345 343 339 337 339 340 340 338 336 335 335 332 328 322 320 319 319 316 314 314 313 308 301 296 293 291 288 286 284 284 285 284 283 283 285 284 280 280 281 282 281 277 274 277 279 278
166 169 165 162 157 151 150 149 145 141 126 104 66 42 18 7 0 349 346 349 354 358 8 24 25 45 70 44 319 323 335 352 349 342 356 356 348 343 339 337 337 335 334 336 336 336 333 329 327 325 326 326 324 322 319 318 315 311 310 308 305 301 295 290 288 288 287 285 285 284 282 282 285 287 286 284 282 280 278 277 277 281 285 285 284
173 176 171 166 160 156 158 159 156 155 148 109 70 40 2 345 343 339 338 344 359 7 6 13 18 21 31 0 323 333 357 8 333 332 345 347 344 339 332 330 332 333 334 334 332 331 328 326 326 325 327 330 328 325 322 319 315 309 305 301 298 296 292 289 288 286 284 281 281 280 278 280 285 284 281 280 277 273 271 269 271 277 279 278 284
177 179 172 169 164 163 168 167 164 167 148 96 57 4 339 333 334 335 335 346 19 35 21 15 10 359 10 3 340 0 27 2 321 332 335 331 333 333 328 327 329 329 331 330 328 329 327 326 327 325 326 327 325 323 322 320 315 309 303 297 293 289 286 287 288 286 284 280 278 277 276 277 280 278 277 280 280 277 271 260 255 260 262 260 267
180 179 174 173 173 175 176 171 174 178 136 64 10 342 331 328 330 334 340 358 30 39 26 23 15 2 10 2 346 10 34 358 327 330 328 325 329 330 325 323 323 323 326 327 327 328 326 325 326 325 325 326 322 319 320 320 316 310 304 298 293 289 285 284 283 283 284 283 280 278 278 278 280 281 284 288 287 282 274 265 259 259 258 256 259
179 180 178 178 180 184 178 177 187 184 83 25 358 340 328 327 330 338 352 7 27 34 28 28 21 11 9 356 352 24 19 339 328 328 328 328 331 329 322 317 318 318 322 325 326 327 326 324 324 323 324 324 320 317 317 317 313 307 302 296 293 293 292 290 287 285 284 285 283 283 284 284 284 285 288 287 282 277 275 275 275 272 269 268 268
176 178 179 180 184 185 180 185 201 184 56 10 348 328 320 323 330 346 5 14 29 34 26 21 14 9 5 353 0 34 353 326 327 331 332 336 337 330 317 314 316 316 321 323 322 322 321 320 319 319 319 320 319 320 320 317 310 302 297 294 293 293 294 294 295 295 291 289 287 286 288 290 289 288 287 281 275 272 272 275 281 282 278 275 271
174 176 177 181 184 184 185 192 207 116 40 352 330 317 315 326 342 2 19 22 30 27 16 15 12 6 6 352 349 11 343 328 333 340 344 348 344 329 315 317 319 318 320 320 318 317 315 316 317 316 317 319 319 319 320 317 310 302 297 295 294 294 295 296 296 295 292 290 288 286 287 288 287 288 287 279 273 274 275 273 273 275 275 273 265
174 175 176 179 179 182 184 182 154 47 358 329 321 319 326 31 30 24 21 14 16 16 15 25 19 6 6 356 345 352 344 338 345 355 357 353 343 327 320 323 322 319 318 316 315 314 311 314 315 313 316 320 318 318 320 318 311 303 298 297 295 295 298 301 299 296 294 292 289 286 285 285 287 292 291 282 274 274 275 268 263 263 269 268 262
177 175 177 177 171 168 159 144 137 333 327 321 319 338 109 91 67 37 16 12 18 21 23 29 21 8 9 3 347 339 339 349 359 2 354 348 343 334 326 325 323 320 319 317 313 312 311 313 314 311 309 312 318 321 322 320 313 306 302 299 297 298 305 314 312 305 300 296 292 286 278 275 282 292 291 284 275 265 258 258 260 262 263 264 268
177 175 177 171 161 157 158 167 182 184 175 227 190 140 124 105 88 51 16 19 29 29 16 12 11 7 10 6 349 341 344 351 352 351 348 346 349 344 332 326 325 323 321 318 314 313 314 315 318 318 310 310 320 325 326 326 319 309 302 298 297 304 317 322 316 308 299 295 294 290 278 271 274 284 284 282 276 262 251 251 255 255 253 256 266
173 172 171 165 164 172 180 186 188 173 150 147 146 133 127 120 105 66 21 21 26 21 8 2 3 358 355 355 353 359 6 345 336 340 345 347 350 349 337 329 328 326 321 318 315 317 319 318 322 325 318 318 326 329 333 338 329 312 308 309 309 318 325 320 314 310 302 294 293 295 292 288 287 283 280 281 279 272 262 252 244 243 246 250 256
168 167 165 163 172 186 190 185 177 159 147 146 141 136 135 128 113 89 44 30 28 26 15 4 356 348 344 349 2 8 355 342 334 335 341 346 349 349 343 333 330 327 322 318 318 320 321 321 323 324 322 325 335 340 342 347 340 328 327 327 319 320 320 316 314 312 305 297 295 297 301 301 297 290 289 292 296 299 291 268 244 246 252 252 260
167 166 164 166 181 194 192 181 168 153 150 148 142 138 138 130 119 107 84 62 56 51 35 6 343 338 343 350 355 341 334 338 342 337 338 344 345 345 341 333 330 329 323 320 320 320 320 321 323 326 329 336 347 350 346 347 347 341 336 326 316 319 320 316 318 321 317 316 317 314 309 308 307 307 307 305 307 316 315 303 284 271 261 248 249
169 168 168 177 190 196 186 174 165 155 153 151 146 143 141 137 128 117 107 99 87 60 32 6 343 333 338 338 338 336 330 333 340 342 343 343 341 342 339 332 332 333 325 319 318 318 320 323 326 331 339 347 350 348 346 350 350 347 344 335 324 326 327 323 325 332 331 330 331 328 324 324 324 322 315 307 308 314 315 312 306 291 277 262 246
172 173 176 184 191 189 174 164 161 160 155 149 146 146 145 140 129 120 119 119 80 30 9 10 350 330 338 339 335 337 336 332 336 342 345 344 341 342 340 334 335 335 328 320 315 316 321 325 329 334 342 348 347 347 350 353 352 351 352 348 339 335 339 339 338 340 338 333 330 329 327 329 329 324 316 308 308 309 308 308 305 294 286 281 270
176 178 183 186 182 177 170 164 165 165 158 152 149 147 145 143 136 128 129 134 87 7 5 11 358 347 352 343 335 336 340 345 350 347 344 342 339 337 337 335 334 333 327 317 312 316 323 328 330 334 343 348 348 350 354 355 354 354 355 357 357 356 355 352 348 345 340 333 329 326 326 330 333 330 323 311 304 305 308 311 311 302 290 284 281
177 181 188 185 175 172 167 164 170 170 161 153 146 142 143 143 138 137 145 141 76 18 13 2 355 10 351 335 335 341 343 353 1 355 347 344 342 339 338 336 334 331 326 317 317 323 329 332 336 346 355 354 350 352 356 357 357 357 358 3 9 6 359 353 349 344 338 333 328 325 326 329 330 326 324 322 321 324 324 317 314 309 293 281 279
178 182 187 181 176 178 173 172 177 171 161 154 144 136 140 141 137 144 158 144 99 35 35 21 2 354 345 339 339 340 348 3 5 358 350 347 347 345 342 340 337 334 329 326 328 332 332 334 349 8 4 356 358 2 1 1 2 1 1 4 3 358 353 351 348 345 340 334 328 322 321 323 323 324 328 332 338 343 338 320 318 319 307 287 274
175 173 173 174 182 186 181 181 182 172 159 151 138 130 135 140 138 129 93 54 32 27 37 35 11 345 347 355 343 336 357 14 4 355 350 348 347 345 343 343 342 336 333 335 335 332 332 343 4 14 3 0 9 9 4 4 4 3 4 2 357 353 353 354 353 350 345 338 330 324 323 326 332 338 338 335 339 345 347 343 337 335 329 298 272
169 163 167 180 187 186 182 184 183 170 155 141 128 128 132 133 125 107 86 68 53 44 34 28 17 355 348 4 1 353 7 10 357 351 351 349 348 347 345 347 349 344 343 343 337 332 342 359 10 10 5 6 10 7 3 0 357 358 1 0 357 357 358 359 358 354 350 345 338 332 334 340 346 350 345 340 346 355 0 7 5 352 341 309 273
164 168 180 189 190 185 184 183 176 166 157 144 134 135 139 139 137 125 113 99 81 69 56 44 27 2 351 4 10 360 359 359 353 353 354 350 348 347 344 346 350 351 352 352 346 346 358 7 10 9 7 6 5 2 359 355 351 353 355 353 354 360 1 360 360 357 353 351 347 339 342 349 353 359 357 358 10 16 7 15 20 0 349 332 299
173 184 195 194 186 182 183 179 171 165 160 148 140 139 141 145 150 146 132 113 88 79 76 74 41 5 355 0 360 346 347 355 358 357 355 350 347 346 343 344 348 353 357 356 355 2 9 10 9 10 6 3 1 357 352 350 350 351 349 347 353 2 3 360 0 359 358 0 360 355 358 4 13 29 32 28 35 36 19 24 31 12 12 9 336
184 196 202 189 179 181 181 173 167 163 153 146 144 144 147 153 159 161 157 141 100 84 83 69 14 0 360 2 359 346 349 359 4 0 354 350 347 347 346 345 349 356 2 3 5 11 13 10 9 8 2 359 358 353 350 350 349 350 351 349 354 1 3 1 2 4 5 8 8 10 21 32 37 44 48 42 38 41 40 45 44 24 22 33 27
192 204 203 182 175 181 178 169 167 165 156 150 151 154 161 167 165 165 171 173 147 97 88 48 358 359 3 6 6 1 1 6 7 360 353 352 355 355 351 350 356 3 7 10 13 15 14 12 8 4 359 355 353 350 351 351 350 352 356 355 356 0 2 3 7 9 10 13 19 29 42 48 44 45 48 41 34 38 40 39 32 10 4 68 82
197 206 202 183 175 177 174 169 169 167 159 157 160 164 172 177 165 160 166 167 160 154 156 126 15 2 2 6 6 6 11 14 9 2 359 1 5 3 356 357 7 13 12 14 16 15 13 10 6 1 357 353 351 350 351 352 354 358 0 358 359 2 3 7 13 15 12 18 29 40 49 48 44 44 45 40 34 30 26 25 30 38 68 93 86
194 199 196 187 179 177 176 174 170 165 161 162 168 171 174 174 166 159 155 145 139 145 151 134 61 5 0 6 10 11 17 19 12 8 11 11 8 5 2 4 11 16 14 15 17 16 13 10 4 359 355 352 351 351 349 351 357 3 5 4 5 8 9 12 18 19 16 19 27 35 43 45 43 39 41 42 39 37 43 53 58 60 67 76 75
189 190 189 187 183 178 176 173 169 165 163 166 172 177 177 175 170 159 141 127 122 108 100 109 82 20 10 9 13 23 26 19 6 4 10 11 8 5 6 8 10 12 14 15 15 15 14 11 5 360 355 352 352 352 351 354 359 4 7 6 7 12 16 16 18 21 21 21 25 29 32 34 34 35 43 51 54 55 58 60 59 57 60 66 70
187 185 181 180 178 174 170 168 168 168 166 168 174 180 179 175 171 156 136 129 126 106 74 52 59 83 46 22 18 20 14 3 357 359 6 11 10 7 7 9 10 10 13 15 13 13 13 12 7 2 356 354 355 355 355 359 3 6 7 5 6 14 21 22 21 23 25 28 30 29 27 27 29 33 41 48 52 53 54 54 56 58 59 62 67
188 184 176 172 171 169 167 166 169 171 170 170 177 183 180 174 169 156 138 130 129 116 83 58 41 64 65 43 22 356 337 337 351 1 7 12 11 8 7 9 10 11 14 15 14 12 12 12 9 5 1 0 2 1 0 4 9 10 8 6 9 17 21 23 24 24 27 32 35 35 35 36 36 38 42 44 46 50 52 52 55 58 58 61 65
184 180 176 171 169 169 169 168 171 174 175 175 179 185 184 177 169 157 144 140 141 127 87 75 67 59 50 30 4 345 343 358 9 9 10 14 13 9 8 10 10 12 14 14 14 14 13 13 11 8 7 8 7 7 8 10 13 15 14 13 17 22 22 22 24 26 28 32 36 40 44 47 48 49 50 49 48 51 53 54 55 58 60 64 69
171 171 175 174 168 166 170 172 174 177 178 176 179 183 184 179 172 160 150 149 148 129 94 82 84 76 57 40 23 4 2 15 18 12 11 14 12 8 10 10 9 10 12 13 14 14 14 15 14 13 12 13 11 11 13 14 15 18 19 18 21 25 26 26 27 30 32 35 38 43 48 50 52 55 56 56 56 56 57 58 58 60 63 67 70
157 161 171 172 167 166 173 177 178 179 176 173 177 183 181 177 172 163 156 155 154 142 118 101 96 86 60 53 58 41 11 13 19 15 13 16 13 9 9 10 9 10 10 10 13 15 16 18 19 18 17 17 16 15 17 18 19 21 23 23 24 26 28 29 31 33 37 39 41 45 48 49 52 55 57 58 58 58 60 63 63 64 67 70 72
152 155 162 165 168 174 179 179 176 173 169 169 176 181 177 171 169 164 160 162 161 151 131 116 113 100 60 52 67 61 20 16 23 19 14 17 16 14 14 14 13 12 11 9 12 17 19 21 23 24 23 22 21 20 20 20 21 22 24 26 27 28 29 31 34 37 42 44 44 46 48 50 53 57 60 61 61 60 62 65 66 68 70 71 73
152 152 156 163 171 178 178 173 170 168 167 171 176 176 171 168 168 165 164 166 169 161 143 130 128 121 89 65 67 58 21 21 27 24 20 21 20 19 21 21 17 16 15 13 14 18 23 26 28 29 29 28 27 26 25 24 23 23 24 26 28 30 31 34 36 39 45 49 50 49 50 53 55 58 61 63 64 65 66 68 70 72 72 72 72
151 152 156 162 171 173 171 168 168 167 167 169 170 170 171 171 169 168 169 170 172 168 152 138 135 135 126 106 80 53 40 37 32 25 23 26 25 24 26 26 22 20 20 19 19 21 28 32 34 34 35 34 33 32 31 29 27 27 27 27 30 32 34 36 38 40 46 53 55 55 55 57 59 61 63 65 67 69 70 71 73 74 75 75 75
154 156 158 162 167 169 167 166 166 165 165 168 169 172 177 178 173 172 174 173 172 169 156 142 139 137 133 128 109 75 59 48 37 31 29 32 33 33 32 31 28 27 26 25 24 26 30 35 38 39 39 39 37 37 36 35 33 32 31 31 33 35 35 38 42 45 50 56 60 60 60 61 62 64 66 67 69 71 72 73 74 74 75 75 75
158 160 162 165 168 168 165 165 165 165 168 174 176 176 179 180 177 176 176 173 170 167 156 148 147 141 129 125 116 95 74 54 48 47 42 37 38 40 39 38 37 36 34 31 29 30 33 37 38 39 41 41 41 40 40 39 38 36 34 35 40 42 41 43 48 51 55 59 63 65 65 66 68 70 71 72 72 74 76 76 77 77 77 76 74
159 162 166 168 169 167 164 164 166 167 172 178 180 180 181 179 176 174 173 168 166 166 160 155 151 142 133 132 126 112 94 71 63 63 55 49 49 49 47 45 46 44 42 38 35 34 36 39 39 40 40 41 42 41 40 40 41 39 37 40 50 56 55 54 56 58 60 63 66 69 70 70 71 72 73 74 75 76 77 79 80 80 81 80 78
159 164 168 169 169 166 163 164 167 170 174 178 180 181 179 175 172 172 170 166 167 167 162 157 153 144 140 139 131 122 113 92 77 76 72 64 62 61 57 54 54 53 49 45 41 39 39 41 42 43 43 43 43 44 43 42 43 41 42 50 64 72 71 68 67 65 65 68 70 72 73 73 73 74 74 75 77 78 78 79 80 80 82 84 83
161 167 169 169 169 167 165 167 170 172 174 176 177 176 174 172 171 171 169 167 167 165 158 156 154 148 144 145 139 131 127 116 99 91 84 76 75 76 72 65 62 61 58 53 48 46 45 45 47 48 48 48 49 49 49 49 49 48 51 61 76 82 80 78 77 74 73 73 73 74 75 75 75 76 76 77 78 79 79 78 78 79 80 82 84
164 168 168 167 169 168 167 170 173 173 174 175 175 173 171 169 169 170 168 165 162 159 155 154 153 149 148 150 149 143 139 130 117 107 98 90 88 91 87 78 73 70 66 61 57 54 52 53 53 54 54 54 55 56 57 58 58 58 60 67 78 85 85 84 83 81 79 77 76 76 78 78 78 78 78 78 78 80 82 82 83 82 82 83 85
166 169 167 167 170 170 170 173 175 174 175 177 176 173 172 170 168 167 166 163 160 158 156 153 152 152 153 152 149 147 144 135 125 121 114 102 97 102 100 91 84 81 76 70 66 63 60 60 60 59 59 59 60 62 64 65 66 68 70 72 76 79 80 79 79 79 79 80 79 78 79 79 79 79 79 79 80 82 84 85 85 85 84 84 86